www.pogodaiklimat.ru

Погода и климат >> Архив погоды >> Россия >> Амурская область >> Архара


АРХИВ ПОГОДЫ в Архаре

Время (UTC), дата Ветер
(напр.,м/с)
 
Видим.   Явления Облачность Т
(С)
Тd
(С)
f
(%)
Тe
(С)
Тes
(С)
Комфортность P
(гПа)
Po
(гПа)
Тmin
(С)
Tmax
(С)
R
(мм)
R24
(мм)
S
(см)
06 15.04 Ю 3 20 км ясно +19.0 -9.3 14 +19 +26 1000.1 984.4
09 15.04 Ю 1 20 км 10/0
[Ac und]
+16.7 -6.4 20 +18 +18 999.7 983.9
12 15.04 ЮВ 2 20 км 3/0
[Ci fib]
+11.2 -6.1 29 +11 +11 1000.6 984.5 +19.4
15 15.04 ЮВ 3 20 км 10/0
[Ac trans Ci fib]
+9.2 -5.4 35 +8 +8 1000.1 983.9
18 15.04 ЮВ 3 20 км 10/0
[Ac trans Ci fib]
+10.5 -5.8 31 +9 +9 998.7 982.6
21 15.04 ЮВ 3 20 км 10/0
[Ac trans Ci fib]
+10.1 -6.7 30 +9 +9 996.6 980.5
00 16.04 ЮВ 5
{11}
20 км 10/0
[Ac trans Cs]
+13.2 -6.0 26 +12 +14 993.8 977.9 +8.8
03 16.04 Ю 6-11
{14}
10 км 10/0
[Ac trans Cs]
+20.3 -3.2 20 +20 +23 990.7 975.2
06 16.04 З 7-14
{15}
10 км 10/3 1000 м
[Cb cap Cs]
+20.1 -6.5 16 +19 +21 991.6 976.1
09 16.04 СЗ 4
{14}
50 км 10/0
[Ac trans Cs]
+10.0 -2.1 43 +8 +8 998.4 982.3
12 16.04 С 3 50 км 10/0
[Ac trans Cs]
+7.0 -7.7 34 +5 +5 1003.2 986.8 +23.9
15 16.04 СЗ 1 50 км 10/0
[Ac und]
+3.1 -8.6 42 +2 +2 1005.5 988.8
18 16.04 С 2 50 км 10/0
[Ac und]
+1.1 -8.4 49 -2 -2 1006.8 990.0
21 16.04 С 2 50 км 10/0
[Ac trans Cs]
+1.4 -9.7 43 -1 -1 1006.7 989.9
00 17.04 СВ 2 20 км 10/0
[Cs]
+5.6 -14.5 22 +4 +10 1006.1 989.5 +0.1
03 17.04 СВ 3 20 км 10/4 1000 м
[Cb cap Ac und]
+7.2 -12.0 24 +5 +7 1004.6 988.2
06 17.04 СВ 4 20 км 10/8 1000 м
[Cb cap Ac trans]
+7.8 -12.1 23 +5 +6 1000.9 984.6
09 17.04 С 5
{11}
20 км 10/6 1000 м
[Cb cap Ac trans]
+3.2 -5.2 54 -1 -1 998.8 982.2
12 17.04 С 4
{11}
20 км 10/8 1000 м
[Cb cap Ac trans]
+3.3 -2.7 65 -1 -1 997.8 981.3 +7.8
15 17.04 СВ 3 20 км 10/0
[Ac trans Ci fib]
+3.2 -1.8 70 -0 -0 994.8 978.4
18 17.04 С 4 20 км 10/8 1000 м
[Cb cap Ac trans]
+1.1 -0.8 87 -4 -4 992.7 976.1
21 17.04 С 5 4000 м слаб. ливневой снег 10/10 600 м
[Cb cap]
0.0 -1.3 91 -6 -6 991.7 975.1
00 18.04 СЗ 6-12
{15}
1000 м ливневой снег 10/10 600 м
[Cb cap]
-0.9 -1.9 93 -8 -8 995.0 978.2 -1.0 7 6
03 18.04 СЗ 7 1000 м ливневой снег {метель} 10/10 600 м
[Cb cap]
-2.6 -3.7 92 -11 -11 1000.8 983.9
06 18.04 СЗ 7 1000 м ливневой снег {метель} 10/10 600 м
[Cb cap]
-2.1 -3.7 89 -10 -10 1005.2 988.3
09 18.04 СЗ 6-13
{14}
20 км {ливн. осадки, метель} 10/0
[Ac trans Cs]
+3.0 -11.9 32 -2 -1 1007.3 990.6
12 18.04 СЗ 3
{13}
20 км {ливн. осадки, метель} ясно -1.6 -13.2 41 -6 -6 1010.2 993.2 +3.1 5
15 18.04 СЗ 3 20 км ясно -3.2 -15.4 38 -8 -8 1011.1 994.0
18 18.04 СЗ 4 20 км ясно -4.5 -14.5 46 -10 -10 1012.0 994.7
21 18.04 З 4 20 км ясно -6.4 -14.6 52 -13 -12 1013.1 995.7
00 19.04 СЗ 5-11
{11}
20 км ясно -0.6 -13.6 37 -6 -2 1014.2 997.2 -6.4 6
03 19.04 СЗ 5-10
{12}
50 км 3/0
[Ac trans]
+2.3 -11.4 36 -2 +4 1015.5 998.6
06 19.04 СЗ 5
{13}
50 км ясно +4.3 -11.6 30 0 +5 1014.8 998.0
09 19.04 СЗ 3
{11}
50 км ясно +5.0 -12.3 27 +3 +3 1014.2 997.5
12 19.04 С 1 50 км ясно -0.9 -10.0 50 -2 -2 1014.8 997.7 +5.5
15 19.04 ЮВ 1 50 км ясно -5.6 -9.6 73 -8 -8 1014.7 997.3
18 19.04 ЮВ 1 50 км ясно -2.4 -11.3 50 -4 -4 1013.1 996.0
21 19.04 ЮВ 1 50 км ясно -3.2 -11.9 51 -5 -5 1011.8 994.6
00 20.04 ЮВ 2 50 км 3/0
[Ci fib]
+3.7 -7.1 45 +2 +9 1008.9 992.2 -6.5 3
03 20.04 ЮВ 5-10
{10}
50 км 10/4 1000 м
[Cb cap Ac und]
+7.0 -10.5 27 +4 +5 1005.9 989.4
06 20.04 ЮВ 2
{10}
50 км 10/10 600 м
[Cb cap]
+8.3 -10.3 26 +7 +7 1002.6 986.3
09 20.04 ЮВ 3
{10}
50 км 10/6 600 м
[Cb cap Ac und]
+9.2 -5.0 36 +7 +8 1001.3 985.1
12 20.04 ЮВ 1 50 км 3/0
[Ac trans]
+5.2 -5.1 47 +5 +5 1003.2 986.7 +9.7
15 20.04 СЗ 3 50 км ясно +2.7 -5.3 56 -1 -1 1005.0 988.3
18 20.04 З 2 50 км ясно -0.4 -4.9 72 -4 -4 1007.9 991.0
21 20.04 штиль 0 50 км ясно -3.9 -7.2 78 -5 -4 1009.9 992.7
00 21.04 З 3 50 км ясно +4.6 -8.0 40 +2 +8 1010.7 994.0 -3.9 0
03 21.04 З 4 50 км 3/0
[Ac trans]
+7.4 -9.1 30 +5 +13 1010.6 994.1
06 21.04 З 5
{12}
50 км 3/0
[Ac trans]
+8.8 -11.2 23 +6 +10 1010.7 994.2
09 21.04 З 3
{13}
50 км 4/3 1000 м
[Cb cap Ac trans]
+9.1 -12.7 20 +8 +8 1010.6 994.2
12 21.04 СВ 1 50 км ясно -0.1 -8.3 54 -1 -1 1012.4 995.4 +9.9
15 21.04 штиль 0 50 км ясно -4.0 -7.1 79 -5 -5 1013.7 996.5
18 21.04 штиль 0 50 км ясно -6.0 -7.8 87 -7 -7 1015.4 998.0
21 21.04 Ю 1 50 км ясно -5.8 -8.5 81 -8 -8 1015.8 998.4
00 22.04 ЮВ 1 50 км ясно +4.8 -6.9 42 +4 +13 опасность
простуды
1016.4 999.7 -6.6
03 22.04 ЮВ 2 50 км 10/0
[Cs]
+11.9 -13.2 16 +12 +23 опасность
простуды
1013.7 997.4

 

Местоположение метеостанции Архара (Амурская область, Россия): широта 49.42 долгота 130.00 высота над уровнем моря 135 м.

В архиве по умолчанию представлена погода в Архаре за последнюю неделю. Архивные данные за месяц целиком и за предыдущие месяцы, начиная с января 2011 года, Вы можете получить, выбрав интересующий диапазон дат из раскрывающегося списка и нажав кнопку "Ввод!".


*Определитесь, кто Вы:
робот инопланетянин человек

Внимание! Время в таблицах - всемирное. Для получения местного времени необходимо прибавить поправку, которая равна 9 ч.

Смотрите также архив погоды в соседних городах и на ближайших метеорологических станциях:

Погода в Малиновке (Амурская область, Россия) (41 км)
Погода в Облучье (Еврейская автономная область, Россия) (86 км)
Погода в Завитае (Амурская область, Россия) (89 км)
Погода в Поярково (Амурская область, Россия) (104 км)
Погода в Екатеринославке (Амурская область, Россия) (128 км)
Погода в Сектагли (Хабаровский край, Россия) (133 км)
Погода в Константиновке (Амурская область, Россия) (153 км)
Погода в Братолюбовке (Амурская область, Россия) (159 км)
Погода в Сутуре (Хабаровский край, Россия) (167 км)
Погода в Суньу (Хэйлунцзян, Китай) (192 км)

Пояснения к столбцам:

Ветер - указаны скорость ветра в м/с - средняя за 10 мин, порывы в срок и между сроками (в фигурных скобках) и направление, откуда дует ветер: С - северный, СВ - северо-восточный, В - восточный, ЮВ - юго-восточный, Ю - южный, ЮЗ - юго-западный, З - западный, СЗ - северо-западный.
Видимость - горизонтальная дальность видимости в метрах или километрах. При видимости от 1 до 10 км при отсутствии осадков обычно наблюдается дымка, при ухудшении видимости до 1 км и менее - туман. В сухую погоду видимость может ухудшаться дымом, пылью или мглою.
Явления - указаны атмосферные явления, наблюдавшиеся в срок или в последний час перед сроком; фигурными скобками обозначены явления, наблюдавшиеся между сроками (за 1-3 часа до срока); квадратными скобками обозначены град или гололедные отложения с указанием их диаметра в мм.
Облачность - указаны через наклонную черту общая и нижняя облачность в баллах и высота нижней границы облаков в метрах; квадратными скобками обозначены формы облаков: Ci - перистые, Cs - перисто-слоистые, Cc - перисто-кучевые, Ac - высококучевые, As - высокослоистые, Sc - слоисто-кучевые, Ns - слоисто-дождевые, Cu - кучевые, Cb - кучево-дождевые. Подробнее классификацию облаков см. в Атласе облаков (PDF).
T - Температура воздуха - температура, измеренная на высоте 2 м над землей.
Td - Температура точки росы - температура, при понижении до которой содержащийся в воздухе водяной пар достигнет насыщения.
f - Относительная влажность воздуха - влажноcть воздуха, измеренная на высоте 2 м над землей.
Te - Эффективная температура - температура, которую ощущает одетый по сезону человек в тени. Характеристика душности погоды. При расчете учитывается влияние влажности воздуха и скорости ветра на теплоощущения человека.
Tes - Эффективная температура на солнце - температура, которую ощущает человек, с поправкой на солнечный нагрев. Характеристика знойности погоды. Зависит от высоты солнца над горизонтом, облачности и скорости ветра. Ночью, в пасмурную погоду, а также при ветре 12 м/с и более поправка равна нулю.
P - Атмосферное давление - приведенное к уровню моря атмосферное давление.
Po - Атмосферное давление - измеренное на уровне метеостанции атмосферное давление.
Tmin - Минимальная температура - минимум температуры воздуха на высоте 2 м над землей.
Tmax - Максимальная температура - максимум температуры воздуха на высоте 2 м над землей.
R - Количество осадков - Количество выпавших осадков за период времени, мм. При наведении курсора мыши на число - период времени, за который выпало указанное количество осадков.
R24 - Количество осадков - Количество выпавших осадков за 24 часа, мм.
S - Снежный покров - Высота снежного покрова, см. При наведении курсора мыши на число - состояние снежного покрова и степень покрытия местности в баллах.